Tracking 20721 objects as of 1-Jun-2020
HD Live streaming from Space Station
objects crossing your sky now

THORAD AGENA D DEB

Track THORAD AGENA D DEB now!
10-day predictions


NORAD ID: 4193
Int'l Code: 1969-082BG
Perigee: 690.8 km
Apogee: 852.6 km
Inclination: 69.9 °
Period: 100.1 minutes
Semi major axis: 7142 km
RCS: 0.0571 m2 (small)
Launch date: September 30, 1969
Source: United States (US)
Launch site: AIR FORCE WESTERN TEST RANGE (AFWTR)

Note: This is SATELLITE DEBRIS
aabbcc
Your satellite tracking list
Your tracking list is empty




NASA's NSSDC Master Catalog

Two Line Element Set (TLE):
1  4193U 69082BG  20151.30348702 +.00000897 +00000-0 +29347-3 0  9990
2  4193 069.9315 155.3353 0113266 168.7546 191.6154 14.38171790572117
Source of the keplerian elements: AFSPC